Overview Statistics Trail Chart Weather Telemetry Raw packets
 

This is the latest recevied weather packets stored in our database for station/object K5GHS-1. If no packets are shown the sender has not sent any weather packets the latest 10 day(s).

<< 13 14 15 16 17 18 19 >>
Time Temp. Humidity Pressure Rain* Wind** Luminosity Snow
1788618062 31.67° C 64% 1013.4 hPa 0 mm - 220 W/m² -
1788617762 31.67° C 66% 1013.2 hPa 0 mm - 207 W/m² -
1788617459 31.11° C 65% 1013.3 hPa 0 mm - 188 W/m² -
1788617154 31.11° C 67% 1013.2 hPa 0 mm - 171 W/m² -
1788616852 30° C 69% 1013.3 hPa 0 mm - 161 W/m² -
1788616548 30° C 69% 1013.4 hPa 0 mm - 157 W/m² -
1788616248 30° C 71% 1013.3 hPa 0 mm - 141 W/m² -
1788615943 29.44° C 72% 1013.3 hPa 0 mm - 130 W/m² -
1788615668 28.89° C 73% 1013.4 hPa 0 mm - 124 W/m² -
1788615337 28.33° C 74% 1013.2 hPa 0 mm - 105 W/m² -
1788615037 28.33° C 75% 1013.2 hPa 0 mm - 38 W/m² -
1788614737 28.33° C 76% 1013.2 hPa 0 mm - 36 W/m² -
1788614432 27.78° C 77% 1013.3 hPa 0 mm - 34 W/m² -
1788614127 27.78° C 77% 1013.3 hPa 0 mm - 32 W/m² -
1788613822 27.78° C 78% 1013 hPa 0 mm - 29 W/m² -
1788613521 27.22° C 78% 1013 hPa 0 mm - 27 W/m² -
1788613217 27.22° C 80% 1013 hPa 0 mm - 27 W/m² -
1788612916 26.67° C 80% 1012.8 hPa 0 mm - 25 W/m² -
1788612612 26.11° C 81% 1012.6 hPa 0 mm - 20 W/m² -
1788612308 26.11° C 81% 1012.6 hPa 0 mm - 17 W/m² -
1788612004 26.67° C 81% 1012.6 hPa 0 mm - 16 W/m² -
1788611699 26.11° C 81% 1012.5 hPa 0 mm - 13 W/m² -
1788611395 26.11° C 81% 1012.4 hPa 0 mm - 11 W/m² -
1788611089 26.11° C 81% 1012.5 hPa 0 mm - 8 W/m² -
1788610784 26.11° C 81% 1012.4 hPa 0 mm - 6 W/m² -

* Rain latest hour (hover to see other rain measurements)
** Current wind speed in m/s (hover to see current wind gust speed)